EW7414 Weather Reports


Display with metric or nautical units.
time (UTC)temp
F
wind
direction
speed
MPH
gust
MPH
rain 1hr
in
rain 24hr
in
rain mn
in
humidity
%
barometer
mb
20260505182827 77 272 5.0 15.0 0.00 0.06 0.06 38 1007.0
20260505182313 77 228 3.0 17.0 0.00 0.06 0.06 39 1007.2
20260505181825 77 231 1.0 17.0 0.00 0.06 0.06 38 1007.3
20260505181326 78 242 4.0 17.0 0.00 0.06 0.06 37 1007.5
20260505180831 78 291 4.0 19.0 0.00 0.06 0.06 38 1007.1
20260505180313 78 148 5.0 19.0 0.00 0.06 0.06 39 1007.4
20260505175838 78 282 2.0 16.0 0.00 0.06 0.06 38 1007.5
20260505175322 78 261 4.0 17.0 0.00 0.06 0.06 41 1007.5
20260505174827 78 201 4.0 17.0 0.00 0.06 0.06 38 1007.7
20260505174330 78 228 1.0 16.0 0.00 0.06 0.06 40 1007.8
20260505173812 78 214 3.0 16.0 0.00 0.06 0.06 40 1007.8
20260505173318 78 215 1.0 12.0 0.00 0.06 0.06 41 1007.8
20260505172821 77 209 3.0 15.0 0.00 0.06 0.06 43 1007.8
20260505172324 77 210 5.0 15.0 0.00 0.06 0.06 43 1007.8
20260505171829 76 224 1.0 15.0 0.00 0.06 0.06 43 1007.6
20260505171331 76 250 4.0 15.0 0.00 0.06 0.06 45 1007.9
20260505170821 77 221 4.0 14.0 0.00 0.06 0.06 42 1007.9
20260505170326 77 279 0.0 14.0 0.00 0.06 0.06 42 1007.8
20260505165851 76 193 3.0 14.0 0.00 0.06 0.06 46 1008.0
20260505165331 76 264 2.0 19.0 0.00 0.06 0.06 44 1008.0
20260505164816 75 283 2.0 19.0 0.00 0.06 0.06 43 1008.1
20260505164321 75 218 3.0 15.0 0.00 0.06 0.06 44 1008.1
20260505163826 75 222 2.0 14.0 0.00 0.06 0.06 45 1008.1
20260505163328 75 245 2.0 14.0 0.00 0.06 0.06 46 1008.2
20260505162831 75 290 1.0 11.0 0.00 0.06 0.06 45 1008.2
20260505162314 75 317 1.0 11.0 0.00 0.06 0.06 44 1008.3
20260505161840 75 224 1.0 11.0 0.00 0.06 0.06 44 1008.4
20260505161323 76 222 1.0 10.0 0.00 0.06 0.06 45 1008.5
20260505160828 76 195 1.0 14.0 0.00 0.06 0.06 47 1008.3
20260505160335 75 306 1.0 14.0 0.00 0.06 0.06 46 1008.5
20260505153325 72 243 2.0 14.0 0.00 0.06 0.06 49 1009.1
20260505152828 72 233 2.0 15.0 0.00 0.06 0.06 49 1009.1
20260505152332 72 326 2.0 20.0 0.00 0.06 0.06 49 1009.1
20260505151817 72 229 7.0 20.0 0.00 0.06 0.06 49 1009.0
20260505151321 73 229 4.0 15.0 0.00 0.06 0.06 49 1009.0
20260505150825 72 136 0.0 11.0 0.00 0.06 0.06 50 1008.9
20260505150314 72 264 1.0 10.0 0.00 0.06 0.06 49 1008.8
20260505140324 71 269 4.0 15.0 0.00 0.06 0.06 54 1008.7
20260505124826 66 234 1.0 8.0 0.00 0.06 0.06 65 1009.0
20260505124330 66 239 4.0 7.0 0.00 0.06 0.06 65 1009.0
20260505123814 65 252 0.0 11.0 0.00 0.06 0.06 66 1009.0
20260505123322 65 235 0.0 11.0 0.00 0.06 0.06 67 1009.1
20260505122827 64 127 2.0 11.0 0.00 0.06 0.06 68 1009.1
20260505122330 63 229 4.0 11.0 0.00 0.06 0.06 68 1009.2
20260505121815 63 232 0.0 8.0 0.00 0.06 0.06 68 1009.2
20260505121317 63 244 2.0 8.0 0.00 0.06 0.06 69 1009.2
20260505120823 62 214 3.0 10.0 0.00 0.06 0.06 71 1009.1
20260505120329 61 239 4.0 10.0 0.00 0.06 0.06 71 1009.3
20260505115817 61 262 3.0 11.0 0.01 0.06 0.06 72 1009.3
20260505115323 61 324 3.0 10.0 0.04 0.06 0.06 73 1009.2
20260505114828 60 219 4.0 12.0 0.06 0.06 0.06 73 1009.3
20260505114313 60 212 7.0 12.0 0.06 0.06 0.06 74 1009.2
20260505113817 60 223 4.0 8.0 0.06 0.06 0.06 75 1009.2
20260505113322 59 225 4.0 9.0 0.06 0.06 0.06 76 1009.2
20260505112825 59 202 4.0 9.0 0.06 0.06 0.06 76 1009.0
20260505112328 59 223 5.0 10.0 0.06 0.06 0.06 76 1008.8
20260505111834 59 179 6.0 11.0 0.06 0.06 0.06 77 1008.9
20260505111319 59 223 5.0 10.0 0.06 0.06 0.06 77 1008.8
20260505110822 59 150 5.0 11.0 0.06 0.06 0.06 77 1008.9
20260505110328 60 221 5.0 12.0 0.06 0.06 0.06 77 1008.8
20260505101816 62 220 0.0 4.0 0.00 0.00 0.00 62 1008.7
20260505101319 62 233 0.0 7.0 0.00 0.00 0.00 62 1008.5
20260505100824 61 224 0.0 7.0 0.00 0.00 0.00 62 1008.4
20260505100327 61 195 1.0 7.0 0.00 0.00 0.00 62 1008.5
20260505095815 61 186 0.0 1.0 0.00 0.00 0.00 62 1008.4
20260505095342 61 195 0.0 0.0 0.00 0.00 0.00 62 1008.4
20260505094827 61 240 0.0 0.0 0.00 0.00 0.00 62 1008.4
20260505094332 61 224 0.0 0.0 0.00 0.00 0.00 62 1008.4
20260505093816 61 209 0.0 0.0 0.00 0.00 0.00 62 1008.5
20260505093344 61 234 0.0 0.0 0.00 0.00 0.00 62 1008.5
20260505092826 62 292 0.0 0.0 0.00 0.00 0.00 61 1008.4
20260505092329 62 276 0.0 0.0 0.00 0.00 0.00 61 1008.5
20260505091814 62 241 0.0 0.0 0.00 0.00 0.00 61 1008.4
20260505091341 62 215 0.0 0.0 0.00 0.00 0.00 61 1008.6